Presure
196 179 173 181 173 196 137 121 81 178 116 132 123 141 124 126 192 172 172 170 169 144 175 174 105 85 100 83 91 96 98 89 98 90 138 125 96 103 103 101 90 103 106
149 201 79 88 134 124 190 136 93 104 194 78 162 79 83 128 176 73 135 185 117 102 157 176 146 136 116 91 94 97 108 92 90 99 97 103 99 97 87 119 95 108 107
214 197 203 183 82 181 160 168 185 166 158 174 191 173 169 68 97 87 149 109 193 126 181 166 167 130 123 131 95 90 90 97 136 141 98 98 111 95 97 86 104 123 98
209 202 174 176 182 170 79 112 172 128 112 189 86 183 157 183 181 190 105 87 125 76 133 103 115 151 148 104 127 102 116 89 117 101 145 107 116 107 100 165 109 105 156
213 181 150 97 103 82 141 79 91 173 180 148 78 181 187 174 189 103 74 69 111 100 131 117 119 123 133 120 93 107 134 118 101 143 108 110 101 102 93 107 125 125 111
179 199 188 177 179 152 81 174 138 181 82 178 184 89 84 190 171 187 179 146 167 117 149 133 143 79 127 107 89 111 107 90 93 96 176 102 99 97 99 96 103 111 145
196 182 183 190 192 182 177 181 187 184 168 156 170 93 94 88 176 172 169 161 168 137 124 111 126 153 160 129 124 123 120 111 106 84 100 97 155 129 97 97 144 137 100
193 191 191 178 178 190 183 181 176 180 191 165 143 143 169 98 96 161 142 121 171 169 139 125 142 150 127 141 147 140 166 162 181 116 137 94 99 100 91 96 96 102 97
188 198 174 185 179 166 192 180 180 182 182 180 171 174 173 161 168 153 165 164 103 166 162 111 120 149 188 81 97 118 109 120 122 133 156 151 157 153 92 114 106 97 117
189 205 184 186 170 182 192 181 170 179 182 174 171 167 164 171 168 171 180 177 171 171 172 171 169 144 145 104 105 122 147 157 176 134 153 171 161 146 162 161 151 96 101
192 198 185 173 185 185 183 189 183 173 174 173 175 162 160 156 166 161 169 171 174 186 174 179 191 161 187 96 98 120 169 186 183 181 179 173 105 171 160 166 157 158 142
180 184 183 188 201 161 184 186 171 161 172 179 184 167 168 174 189 179 183 184 194 182 169 167 173 171 172 164 183 184 183 186 175 169 162 160 182 180 95 97 166 141 140
156 181 184 196 201 179 170 184 194 201 201 196 211 170 172 179 175 172 177 179 168 170 168 170 182 181 162 173 176 190 181 186 190 182 185 188 183 169 171 183 178 182 188
182 184 168 180 173 169 167 162 162 167 170 171 179 187 168 185 205 216 213 207 207 208 207 169 162 161 165 213 210 175 173 172 169 178 143 178 183 183 180 189 181 179 176
203 202 203 213 200 195 193 192 192 194 157 159 192 195 194 184 182 186 190 192 191 191 190 190 191 190 192 192 196 208 200 202 203 204 203 184 169 173 173 183 186 179 178
174 178 178 178 178 178 178 177 176 175 175 179 185 187 188 188 173 173 175 184 171 170 172 174 191 196 180 173 189 205 186 193 190 192 210 200 210 231 216 206 205 193 179
159 159 156 155 156 159 160 158 163 174 165 164 170 171 172 164 191 183 183 180 173 162 165 162 155 154 188 195 158 160 168 203 159 168 170 165 167 186 212 233 223 230 191
159 167 162 160 165 170 172 176 177 171 169 166 159 168 163 167 158 169 156 153 156 145 166 173 189 191 186 186 157 184 190 161 177 181 175 170 171 166 172 170 170 204 206
172 173 173 162 152 148 152 153 152 150 147 146 145 144 153 180 170 158 152 154 148 157 164 182 173 191 192 183 177 183 188 191 193 188 174 187 200 204 205 205 200 189 175
156 148 153 152 152 150 161 165 172 173 172 168 171 169 173 173 173 170 170 178 174 176 174 176 153 190 186 175 176 185 186 188 177 191 199 209 199 200 162 194 199 186 194
162 153 153 162 164 164 161 145 147 163 169 167 165 168 172 172 169 161 172 166 175 172 167 184 178 174 170 170 184 179 161 163 179 206 190 182 193 184 199 194 183 168 195
162 162 161 161 154 153 155 163 163 163 151 160 161 164 168 161 166 157 169 164 166 169 172 169 173 166 181 180 171 178 177 182 189 172 170 177 182 184 192 194 197 208 203
160 169 162 157 149 159 157 161 154 153 160 156 159 162 161 153 159 161 161 158 174 159 171 162 166 176 177 168 154 170 169 159 162 180 189 180 191 192 177 193 210 207 221
160 163 165 167 155 159 160 143 149 159 152 157 158 154 159 160 163 172 164 163 171 155 169 164 157 168 178 177 170 172 186 182 191 178 175 190 190 192 207 191 200 218 232
152 126 148 166 150 135 139 146 165 154 161 161 157 153 154 154 153 168 167 166 168 163 170 177 152 158 171 181 183 181 151 199 192 191 174 177 189 189 193 207 214 231 240
152 155 162 160 156 160 152 143 141 152 151 146 155 165 161 163 162 168 171 165 165 170 178 177 170 157 178 183 187 194 207 193 190 211 206 206 205 218 238 240 254 223 226
Wind_Speed
26 41 40 40 46 38 41 35 19 36 34 43 40 43 38 44 42 42 42 44 39 39 36 36 42 27 39 23 32 34 34 32 34 31 40 38 33 34 36 32 30 31 32
23 27 22 21 34 51 38 47 36 36 33 16 51 21 29 39 42 19 42 50 45 36 39 42 46 46 40 37 38 38 40 36 34 39 37 37 37 37 31 46 34 37 33
27 33 30 42 24 47 44 48 35 48 50 53 46 48 44 21 31 35 42 34 44 44 48 43 44 51 53 50 42 35 36 39 48 47 40 40 42 41 38 30 40 50 34
30 40 43 44 48 45 30 41 51 47 33 48 26 46 45 49 46 44 32 33 40 27 37 41 43 49 50 49 54 41 47 36 47 45 50 45 45 45 42 51 45 43 54
43 39 33 20 36 34 39 32 43 50 50 43 26 48 46 45 49 39 24 25 39 51 52 49 43 41 57 50 42 48 54 47 48 52 44 45 45 44 44 44 55 51 46
32 54 48 44 48 44 37 47 46 52 46 53 51 41 42 47 45 50 45 49 47 58 52 58 55 35 61 50 44 55 53 43 44 46 48 48 47 45 45 46 44 49 58
41 40 40 44 53 50 49 51 51 55 53 52 45 53 53 47 46 45 45 45 47 59 59 59 62 55 54 64 62 63 53 57 48 42 52 48 52 63 49 49 61 61 48
34 38 44 38 43 55 56 54 46 49 56 54 57 56 48 57 56 47 51 52 52 50 61 65 59 59 67 67 61 65 54 58 52 67 71 51 53 54 48 51 51 53 50
34 37 36 42 43 40 60 51 53 54 52 48 42 47 49 46 51 56 51 50 52 54 56 61 59 62 58 45 59 60 61 66 68 72 67 67 65 57 52 57 59 54 64
30 37 39 43 38 44 55 50 39 46 53 47 47 44 45 53 52 57 64 62 58 60 62 63 60 70 69 63 63 62 65 66 66 71 74 67 69 76 68 68 74 56 59
32 36 33 40 46 50 43 51 47 41 44 52 55 49 49 53 57 56 61 64 65 66 64 64 60 63 66 66 67 74 67 64 66 68 70 71 69 66 75 73 72 77 77
30 30 31 45 48 38 39 47 46 42 45 49 63 54 57 61 68 69 66 67 69 67 63 64 65 64 64 66 68 70 70 70 72 72 72 74 70 71 64 61 78 84 83
27 31 35 28 27 35 39 38 41 48 54 51 52 54 58 61 62 59 63 66 64 65 66 68 70 69 69 69 69 69 70 71 73 75 75 76 76 78 78 75 79 79 78
28 28 33 32 35 38 41 42 43 45 46 47 48 49 54 56 55 51 49 51 51 51 53 65 66 68 67 56 60 72 73 74 76 77 78 79 79 80 80 80 82 85 85
25 24 24 27 27 27 28 29 32 36 44 45 38 38 39 42 46 47 48 47 48 49 51 54 56 57 58 60 60 59 65 67 69 71 74 79 81 83 84 86 86 88 90
26 24 25 26 27 29 29 30 33 36 37 37 35 36 36 37 47 47 48 46 52 55 57 56 52 55 62 65 61 59 69 68 73 74 68 76 75 69 80 83 84 89 93
29 31 33 34 35 35 35 38 39 36 41 43 42 44 43 48 37 41 42 47 52 58 61 65 67 70 56 55 75 76 77 62 81 83 81 83 85 83 77 75 79 76 96
34 30 34 36 36 36 36 35 36 40 41 42 46 46 48 50 53 56 55 60 60 68 65 61 55 59 62 65 77 70 70 82 88 84 88 88 90 92 95 95 95 87 91
31 31 31 35 41 41 43 46 46 46 45 47 49 52 53 43 51 61 64 60 66 71 62 59 69 63 63 68 72 72 75 78 81 83 89 88 86 87 86 85 90 99 105
42 45 47 47 48 48 47 47 45 43 45 50 48 53 50 50 51 55 56 54 57 58 62 62 74 65 66 70 74 74 78 82 86 88 90 90 93 95 101 94 95 99 100
42 51 50 43 41 42 46 50 52 53 51 52 55 54 54 55 55 60 58 60 60 62 64 67 66 68 74 75 75 78 91 92 88 86 93 98 98 101 106 107 102 108 107
46 47 48 47 50 53 55 50 51 53 55 57 58 58 59 60 61 63 63 63 64 67 69 70 71 76 82 81 81 82 84 88 92 98 101 103 107 106 108 111 111 116 118
51 45 54 54 56 56 55 55 56 60 59 61 61 62 64 64 66 67 67 69 74 70 74 74 75 82 82 88 93 91 93 97 100 98 105 109 114 114 109 118 126 125 127
56 54 53 53 62 60 60 57 62 63 66 67 67 67 69 71 73 74 73 73 77 77 79 79 85 85 92 93 96 100 103 102 107 103 105 116 122 129 132 122 131 140 139
63 45 61 58 63 52 59 59 64 69 69 70 72 73 75 76 75 78 79 79 81 82 87 92 93 96 94 99 104 104 99 114 117 118 107 119 129 128 135 143 147 142 143
68 66 63 65 68 67 71 68 68 74 75 72 76 76 79 79 81 82 85 82 82 89 91 91 93 101 102 107 107 114 119 118 118 123 132 131 129 127 125 132 134 126 128
Wind_Direction
216 224 227 228 233 225 241 244 256 242 255 250 248 248 242 239 246 251 249 245 248 245 248 243 246 259 252 251 255 253 251 253 254 260 247 250 243 255 253 254 255 257 259
212 194 238 222 232 247 220 245 249 251 230 248 256 267 240 245 248 263 239 243 246 246 235 247 235 240 250 261 257 255 251 247 253 251 250 252 244 244 256 261 253 263 262
191 184 192 217 231 219 226 236 232 237 250 243 228 247 242 263 265 263 244 249 245 242 248 248 244 242 245 243 257 262 257 254 251 252 251 248 254 251 256 261 254 260 257
177 191 218 221 218 222 252 244 240 243 245 231 251 244 237 243 246 240 262 266 257 260 257 251 249 245 246 247 248 258 252 263 253 254 250 253 250 254 252 250 256 259 252
171 198 206 242 222 232 233 258 244 237 240 247 256 243 237 240 234 257 266 266 259 256 238 248 260 258 241 246 261 255 250 256 256 252 257 253 256 256 260 258 255 255 255
213 186 202 222 212 232 259 238 246 239 266 249 243 263 265 234 248 241 246 247 251 247 240 238 242 258 246 253 255 254 256 258 260 260 256 259 258 257 259 256 258 257 252
190 212 219 217 208 218 229 235 230 232 244 249 251 260 261 265 244 247 253 254 258 247 255 255 246 251 251 246 251 251 262 261 253 253 258 257 255 250 260 262 250 252 256
203 207 207 222 225 213 218 228 239 238 232 246 250 252 250 260 263 255 256 260 260 259 257 251 257 263 252 246 251 250 255 257 258 259 251 253 254 256 255 256 258 260 256
209 213 222 219 229 239 217 230 233 239 244 249 250 254 251 250 254 256 258 259 255 260 261 260 256 248 265 256 260 259 260 261 261 257 247 248 244 248 252 255 259 256 257
210 211 215 217 232 235 224 237 242 247 247 248 248 248 249 254 256 262 261 263 262 262 262 262 260 252 252 257 258 259 260 257 258 262 246 252 247 249 246 244 245 255 258
219 214 221 227 225 234 238 233 241 248 252 249 247 247 249 250 259 256 260 261 262 263 260 266 271 260 264 254 255 261 256 262 261 261 259 257 258 252 253 249 251 246 256
218 224 220 226 225 242 243 247 244 243 245 251 253 252 254 256 264 260 260 264 262 260 259 261 261 265 266 265 263 262 261 261 260 258 257 256 258 257 255 253 253 258 258
249 222 224 229 229 227 235 231 238 243 247 248 253 245 250 254 254 258 261 257 262 261 263 264 266 266 268 266 265 263 263 264 263 260 260 260 258 255 254 254 252 252 251
235 234 238 230 232 234 237 244 247 247 245 250 253 249 252 252 265 268 268 267 267 268 269 268 268 267 267 266 264 266 266 266 265 262 260 260 261 260 258 256 255 255 253
235 237 238 243 239 240 245 252 257 259 262 264 257 260 265 265 265 267 270 273 275 275 274 275 275 274 273 271 270 271 269 267 265 264 263 265 265 263 261 259 258 257 257
238 238 241 243 244 247 250 253 255 257 259 263 267 269 271 272 266 267 269 273 270 271 271 273 279 278 273 272 272 271 273 273 268 266 270 267 267 268 263 258 256 256 257
258 256 261 262 263 263 262 264 261 257 260 263 264 266 266 270 274 270 272 270 271 274 274 273 270 268 274 276 270 270 269 286 268 271 269 269 269 266 267 271 264 265 258
259 254 257 260 259 258 259 262 260 261 263 266 272 267 268 265 276 267 274 272 274 265 277 280 287 295 284 273 275 275 281 271 270 268 266 268 268 269 268 266 263 262 260
247 250 250 262 272 274 272 272 273 274 276 279 279 277 271 276 273 271 275 276 275 272 279 285 277 296 297 284 282 285 289 287 288 279 266 278 282 278 276 272 264 267 263
266 277 270 270 271 272 266 266 267 268 269 269 273 272 275 275 276 274 276 287 281 288 283 288 278 301 296 289 286 292 294 295 285 289 291 287 286 284 267 272 274 268 268
258 267 268 262 262 264 267 280 279 271 273 272 273 276 279 280 278 273 284 280 294 289 284 303 296 294 288 286 294 291 277 278 286 290 287 284 284 281 282 279 271 265 273
257 258 260 261 267 270 270 271 272 273 277 276 277 280 283 280 284 278 288 287 287 291 293 291 292 286 298 293 285 288 287 291 291 282 279 279 279 278 278 276 273 272 271
261 257 259 263 274 269 270 271 275 277 278 279 281 283 284 281 284 286 287 284 293 285 294 285 288 297 294 284 280 281 279 277 277 286 290 282 287 282 274 280 282 280 274
262 259 260 261 267 268 270 280 279 276 280 280 281 283 284 286 287 290 288 288 291 279 292 286 281 289 294 292 284 285 292 285 291 277 281 290 287 288 285 284 284 281 276
267 276 272 263 273 281 282 279 273 278 277 278 282 284 284 284 284 288 291 291 291 288 292 295 280 284 288 295 294 292 284 299 294 290 279 284 286 285 285 284 282 279 277
266 267 263 265 268 271 274 281 283 281 281 284 283 282 282 284 286 289 290 290 288 293 296 294 288 280 293 297 298 301 302 295 290 290 287 285 287 289 289 283 283 289 289